Regional Weather Roundup
Issued by NWS Green Bay, WI

Home | Current Version | Previous Version | Graphics & Text | Print | Product List | Glossary Off
Versions: 1 2 3 4 5 6 7 8 9 10 11 12 13 14 15 16 17 18 19 20 21 22 23 24 25 26 27 28 29 30 31 32 33 34 35 36 37 38 39 40 41 42 43 44 45 46 47 48 49 50

000
ASUS43 KGRB 051211
RWRGRB

NORTH-CENTRAL AND NORTHEAST WISCONSIN REGIONAL WEATHER ROUNDUP
NATIONAL WEATHER SERVICE GREEN BAY WI
600 AM CST FRI FEB 05 2016

WIZ005-009-010>012-018-019-051300-
NORTH CENTRAL WISCONSIN

CITY           SKY/WX    TMP DP  RH WIND       PRES   REMARKS
IRONWOOD       CLOUDY    12  10  92 SW6       30.22R WCI   3
MANITOWISH WTR PTCLDY     5   2  88 CALM      30.21S
ARBOR VITAE    FLURRIES  11   9  89 CALM      30.22R
EAGLE RIVER    LGT SNOW   7   4  85 CALM      30.21R
LAND O LAKES   FLURRIES   0  -3  85 CALM      30.21R
RHINELANDER    PTCLDY     9   5  84 CALM      30.22R
PHILLIPS       FOG        7   5  90 CALM      30.24R VSB 1
ANTIGO         FOG       -3  -6  87 CALM      30.24R VSB 3/4
TOMAHAWK       CLEAR      4   1  88 CALM      30.24R
MERRILL        CLOUDY     7   4  91 CALM      30.26R FOG
$$

WIZ013-073-051300-
NORTHEAST WISCONSIN

CITY           SKY/WX    TMP DP  RH WIND       PRES   REMARKS
IRON MOUNTAIN  MOCLDY     6   1  80 CALM      30.22R
MARINETTE      CLOUDY    18  14  86 CALM      30.26R
OCONTO         CLOUDY    17  17 100 W5        30.28R WCI   9
$$

WIZ017-030-035>037-045-051300-
CENTRAL WISCONSIN

CITY           SKY/WX    TMP DP  RH WIND       PRES   REMARKS
MEDFORD        PTCLDY     6   4  91 CALM      30.25R
WAUSAU         CLOUDY    16  11  80 NW5       30.25R WCI   9
MOSINEE        CLEAR     14  12  92 CALM      30.27R
MARSHFIELD     CLOUDY     8   4  83 W5        30.26R FOG     WCI   0
WISC RAPIDS    CLOUDY    14  10  84 W5        30.31R WCI   6
STEVENS POINT  CLOUDY    14  11  87 CALM      30.29R
WAUPACA        CLEAR     16  13  87 W6        30.30R WCI   8
SHAWANO        CLEAR     16  13  90 W3        30.29R
CLINTONVILLE   PTCLDY    12  10  92 W5        30.28R FOG     WCI   4
WAUTOMA        MOCLDY     7   3  85 CALM      30.31S FOG
$$

WIZ038-039-048-051-051300-
FOX VALLEY

CITY           SKY/WX    TMP DP  RH WIND       PRES   REMARKS
NWS GREEN BAY  CLEAR     12  10  92 W9        30.28R WCI   0
APPLETON       CLEAR     14  12  92 W8        30.26R WCI   3
OSHKOSH        CLEAR     17  14  88 W6        30.29R WCI   9
FOND DU LAC    CLEAR     19  16  88 W6        30.29R
$$

WIZ022-050-052-051300-
EAST CENTRAL WISCONSIN

CITY           SKY/WX    TMP DP  RH WIND       PRES   REMARKS
EPHRAIM        CLOUDY    20  17  88 NW5       30.24S
STURGEON BAY   CLOUDY    19  14  79 NW3       30.28R
MANITOWOC      PTCLDY    18  13  80 CALM      30.29R
SHEBOYGAN      PTCLDY    19  16  88 W5        30.28R
$$

LMZ563-521-522-541>543-051300-
LAKESHORE

STATION/POSITION TIME  TEMP    WIND        PRES    VSBY  WAVE
                       AIR SEA DIR/SP/G                  HT/PER
                 (UTC) (F)     (DEG/KT/KT) (MB)    (MI)  (FT/S)
SHEBOYGAN LKSHOR 1200   23     290/  7/  8 1026.9R
KEWAUNEE LKSHORE 1100   20     310/  4/  6 1023.8R
ALGOMA MARINA    1140          320/  3/  6   N/A
CHAMBERS ISLAND  1100   22     300/  3/  7 1024.4R
MENOMINEE LKSHOR 1100   21     270/  6     1023.3R
$$



USA.gov is the U.S. government's official web portal to all federal, state and local government web resources and services.